Wind_Speed
10 9 10 8 7 8 10 10 10 10 11 10 8 9 11 13 14 15 17 17 15 15 17 15 13 17 16 9 15 15 7 5 2 6 10 9 9 7 7 9 13 17 18
10 10 10 8 8 11 9 10 8 8 10 9 10 11 10 14 15 11 17 10 12 4 6 11 10 12 8 16 16 15 12 6 5 6 10 22 17 16 11 10 5 13 12
12 11 13 12 10 11 11 11 10 8 8 8 9 8 8 10 11 14 17 16 8 4 6 9 11 9 10 10 10 9 3 9 8 8 13 13 6 7 12 19 3 5 8
14 14 11 13 11 10 11 10 9 7 7 7 9 10 9 10 11 10 12 10 9 8 6 9 6 8 8 10 6 1 4 7 5 16 17 11 10 10 9 6 7 13 8
18 15 14 12 12 12 12 11 10 9 6 5 7 10 8 8 9 11 10 11 10 7 8 9 9 8 8 7 2 2 1 2 4 5 4 2 12 15 7 4 7 13 11
17 16 19 17 13 13 11 12 12 9 7 5 6 7 8 10 10 9 10 9 5 3 2 2 6 6 5 3 1 3 4 5 4 4 3 6 9 10 7 4 6 7 7
18 17 18 16 16 14 14 14 12 12 10 8 7 8 9 10 11 12 11 10 8 7 6 4 3 3 3 3 2 3 5 5 5 5 5 5 5 7 6 5 8 7 10
24 22 21 18 18 16 16 15 15 14 14 11 10 10 10 9 10 10 8 9 8 7 7 5 5 3 2 1 1 1 1 1 4 4 2 1 3 4 5 7 8 10 11
22 20 21 23 20 20 19 18 16 15 14 13 12 12 12 12 10 10 9 6 6 6 5 5 5 5 4 4 3 2 2 4 5 5 5 4 4 4 4 6 8 8 7
29 28 28 28 22 22 21 21 19 18 15 14 14 14 13 12 11 10 6 4 7 5 9 11 4 5 5 5 4 5 7 7 6 7 8 9 8 8 8 6 9 8 7
35 27 24 31 25 23 22 22 20 19 17 16 15 15 14 13 12 12 9 7 8 7 7 5 4 4 6 4 4 5 8 9 8 9 11 12 13 12 11 11 9 8 10
33 33 33 28 28 29 24 23 22 21 20 19 17 16 14 13 12 12 9 8 9 8 10 9 9 10 8 7 8 8 9 11 12 12 12 11 13 13 11 12 12 11 12
20 27 38 41 35 33 29 26 24 26 24 24 22 19 18 15 13 12 12 11 12 12 12 12 12 12 11 11 13 13 11 11 12 14 15 15 15 16 15 15 16 18 18
16 41 42 38 42 40 34 33 31 33 31 28 25 23 21 20 19 18 17 16 15 16 15 15 15 15 15 16 16 16 16 16 15 15 15 17 18 19 20 20 21 21 23
24 30 30 44 40 37 30 36 39 39 34 32 29 27 22 22 21 20 19 19 19 18 19 19 19 19 19 18 19 20 22 22 22 21 21 21 22 22 24 23 24 24 24
19 32 30 34 49 40 38 36 48 40 36 33 35 35 26 25 25 24 23 22 23 23 23 23 22 22 22 23 24 24 26 26 25 24 26 26 26 26 26 26 27 26 26
14 20 32 39 32 50 30 29 53 53 44 43 40 33 25 31 32 27 27 27 26 27 26 26 26 25 25 26 25 26 28 27 26 26 27 33 32 30 30 31 30 29 30
17 20 20 28 31 30 37 40 47 43 39 40 33 30 32 38 36 31 30 30 27 28 30 31 31 29 27 29 30 33 32 31 32 28 30 32 32 35 31 33 35 31 30
30 18 21 16 11 27 30 26 33 40 35 37 38 39 40 38 36 34 33 33 33 34 35 34 33 32 32 31 31 31 35 35 33 33 34 33 32 34 37 39 40 39 43
24 23 23 23 20 13 24 27 32 30 32 33 35 36 34 37 34 34 34 34 35 37 40 38 37 36 38 37 37 37 37 36 33 35 35 38 41 43 45 45 42 41 40
24 21 22 24 21 20 20 14 19 29 27 27 36 39 44 43 41 33 32 33 33 30 31 31 42 42 40 39 36 36 34 35 34 36 37 39 37 37 37 41 42 39 40
30 26 23 21 24 24 25 23 17 14 29 36 45 26 20 26 29 32 37 39 36 36 30 24 25 28 30 31 29 29 29 29 26 27 28 28 26 30 35 35 33 36 41
27 28 27 23 21 26 24 20 23 15 11 10 10 14 8 7 4 11 19 21 21 15 16 17 13 14 17 21 24 27 28 30 29 29 30 31 29 32 33 37 35 34 38
22 29 30 27 25 23 24 21 26 19 17 13 13 14 11 14 13 12 10 13 14 18 19 18 18 20 19 19 21 23 24 27 27 30 31 33 36 34 35 38 37 38 40
34 35 35 34 31 28 26 24 23 21 20 23 21 17 18 21 22 23 22 20 20 23 24 25 26 27 28 28 29 30 32 33 34 36 37 37 38 39 40 39 41 43 42
34 38 39 38 35 33 31 29 28 29 29 30 29 25 23 24 27 28 29 30 31 31 30 31 33 34 34 33 33 33 34 34 35 36 37 39 39 40 42 45 48 49 47
Wind_Direction
166 161 157 184 191 145 143 130 119 108 111 112 104 101 118 145 150 158 158 152 161 168 179 122 175 193 167 194 203 187 179 114 43 11 330 313 298 294 296 292 21 40 53
175 166 152 173 192 163 162 142 127 116 113 115 118 120 120 138 152 164 157 153 168 140 112 134 139 176 176 208 203 187 146 78 12 8 314 325 268 315 319 248 47 29 47
184 175 156 167 184 170 174 164 145 134 115 117 113 127 142 129 142 155 162 163 171 170 144 74 134 196 189 225 227 212 121 104 38 281 281 282 306 73 31 57 114 89 57
192 190 177 165 169 170 180 182 161 151 138 138 140 137 142 157 149 160 173 186 195 175 172 137 159 131 175 181 234 20 24 47 298 336 210 231 209 103 49 69 115 24 67
200 182 189 175 172 181 182 191 184 171 171 163 142 133 142 145 163 166 189 197 195 202 180 173 167 179 166 168 187 11 334 23 8 2 338 316 27 71 72 52 51 36 33
214 197 199 173 191 181 197 200 186 185 191 189 154 146 149 164 174 168 173 194 185 185 231 196 155 148 131 115 42 355 8 9 360 29 70 39 56 79 74 66 57 49 35
209 209 198 183 202 196 202 206 206 188 192 190 182 174 184 166 183 185 182 184 176 188 211 198 197 140 134 128 99 33 14 346 340 15 27 37 60 75 70 31 34 21 19
215 221 199 190 203 209 214 211 212 205 200 205 198 194 203 197 200 201 201 195 183 188 200 229 236 180 169 156 98 79 300 291 291 302 331 359 35 16 16 3 348 7 358
222 214 223 215 200 206 218 224 220 215 206 209 210 213 209 219 211 224 230 208 224 245 255 256 264 260 235 247 243 245 257 284 307 294 290 325 296 296 322 319 329 333 338
209 219 223 214 209 205 209 226 222 219 216 205 212 217 217 218 222 226 224 226 229 256 214 281 249 271 294 299 305 315 312 298 286 285 291 281 284 291 294 299 303 317 322
211 219 222 206 212 213 205 220 226 225 220 215 216 223 221 222 223 231 227 238 241 272 264 245 250 282 261 271 302 309 310 306 301 297 295 297 296 298 296 298 292 299 304
209 221 232 221 235 223 211 216 225 225 225 222 212 220 222 226 227 229 234 238 249 245 254 256 260 251 264 282 298 303 300 293 291 287 281 281 285 284 282 287 292 292 290
242 231 225 237 234 226 221 220 224 232 225 223 216 216 218 219 226 233 232 232 238 244 248 250 252 257 271 286 290 293 290 287 288 281 283 285 287 285 283 283 287 291 293
220 219 228 226 221 241 227 227 223 231 231 230 224 221 225 223 225 228 235 244 250 255 261 265 271 269 269 273 276 284 285 281 278 276 275 277 281 286 285 283 283 288 290
203 221 226 225 214 234 229 237 232 233 228 224 232 231 230 242 239 239 242 248 254 257 261 264 265 269 267 269 275 280 281 281 280 278 280 276 274 277 279 279 280 284 285
220 218 222 238 226 223 230 238 243 232 230 216 227 237 226 238 244 246 248 251 253 257 258 260 262 265 271 278 280 279 282 282 284 281 280 277 278 282 279 279 281 285 287
224 222 225 230 238 229 240 209 217 238 233 231 230 219 243 244 243 246 252 256 260 259 259 259 259 268 276 276 273 275 275 277 287 279 283 280 283 278 277 279 277 280 281
243 228 232 221 229 238 243 227 233 238 232 237 245 248 248 250 254 252 254 256 258 262 260 261 264 263 265 271 268 274 275 281 276 274 286 288 289 276 277 278 276 276 279
253 236 255 258 251 214 227 229 231 227 233 241 248 250 245 246 250 255 256 256 259 263 265 262 265 262 263 265 268 277 271 289 282 275 275 286 288 278 276 280 274 272 272
248 238 255 271 277 285 248 237 238 234 238 239 246 248 242 250 237 250 256 259 265 265 264 266 264 264 264 271 275 279 285 287 286 284 282 283 284 280 275 276 274 274 269
252 245 243 255 271 282 275 258 241 222 231 237 254 260 250 253 249 252 258 254 268 268 268 266 262 265 269 272 274 278 283 282 281 283 284 286 283 285 284 284 276 273 272
228 234 235 241 251 260 266 250 242 205 218 225 227 240 230 243 245 256 253 253 256 273 278 273 266 263 264 268 269 272 274 275 277 282 281 284 286 288 288 281 280 270 271
235 235 237 231 225 250 253 259 246 260 275 244 230 226 255 224 271 241 237 238 236 251 259 266 269 273 275 270 264 264 267 271 277 280 277 279 282 283 284 284 281 276 276
242 238 240 233 223 222 239 249 263 256 269 272 280 250 270 268 265 265 263 248 261 259 262 255 260 266 266 266 266 270 275 280 284 284 287 288 286 289 282 283 289 289 288
248 240 238 237 230 229 227 235 247 256 251 251 252 266 270 272 263 263 261 255 251 260 264 262 263 266 268 268 270 272 274 277 280 283 283 282 282 284 283 284 286 285 285
234 229 229 231 233 229 231 229 231 239 243 249 251 247 259 265 268 262 261 261 263 263 263 265 267 271 272 274 274 274 277 280 282 284 286 285 285 284 283 283 282 283 288
Height
5899 5902 5904 5905 5908 5909 5910 5912 5913 5915 5916 5918 5918 5918 5917 5917 5920 5924 5922 5924 5929 5935 5938 5941 5942 5941 5940 5947 5948 5926 5944 5942 5945 5946 5948 5947 5945 5943 5943 5938 5932 5930 5923
5899 5901 5904 5907 5908 5910 5911 5913 5915 5916 5918 5919 5920 5919 5919 5921 5924 5928 5926 5927 5932 5934 5939 5940 5940 5943 5945 5946 5947 5944 5939 5943 5947 5947 5948 5948 5949 5946 5940 5938 5934 5936 5935
5898 5901 5904 5907 5910 5911 5911 5914 5916 5918 5920 5923 5924 5924 5925 5928 5927 5929 5928 5930 5934 5938 5940 5941 5945 5947 5944 5944 5944 5941 5946 5944 5949 5948 5949 5948 5945 5941 5943 5940 5939 5940 5940
5897 5900 5902 5907 5910 5911 5912 5914 5917 5919 5923 5925 5927 5928 5928 5931 5932 5933 5931 5931 5933 5938 5939 5945 5949 5948 5949 5948 5946 5943 5941 5943 5950 5950 5944 5944 5935 5941 5941 5942 5940 5939 5938
5895 5898 5902 5906 5909 5912 5913 5915 5918 5921 5924 5926 5928 5929 5930 5931 5932 5933 5934 5935 5933 5934 5940 5945 5947 5947 5948 5950 5945 5943 5943 5946 5949 5950 5945 5947 5936 5937 5941 5941 5941 5939 5938
5897 5897 5901 5904 5908 5910 5913 5915 5919 5921 5923 5927 5929 5930 5930 5932 5932 5932 5934 5935 5935 5935 5937 5941 5945 5946 5946 5944 5945 5944 5943 5945 5948 5947 5948 5944 5941 5941 5943 5943 5941 5940 5939
5894 5896 5899 5902 5906 5909 5911 5915 5918 5921 5924 5927 5929 5931 5931 5931 5932 5933 5935 5937 5937 5937 5938 5939 5941 5942 5942 5942 5942 5943 5943 5944 5944 5944 5944 5944 5945 5944 5944 5944 5943 5943 5940
5891 5895 5896 5899 5904 5908 5910 5913 5916 5920 5922 5926 5929 5931 5931 5933 5933 5933 5935 5939 5939 5939 5941 5942 5942 5940 5941 5942 5941 5943 5947 5947 5946 5945 5946 5946 5943 5944 5944 5943 5943 5942 5939
5888 5890 5893 5898 5901 5906 5908 5912 5915 5918 5920 5922 5926 5928 5931 5932 5933 5934 5937 5939 5937 5936 5939 5940 5941 5942 5941 5942 5943 5943 5945 5944 5943 5945 5945 5943 5944 5944 5942 5942 5942 5941 5940
5883 5886 5889 5893 5898 5902 5906 5908 5913 5915 5919 5921 5923 5925 5928 5930 5932 5933 5936 5937 5938 5939 5940 5942 5942 5944 5943 5943 5943 5943 5944 5946 5946 5946 5944 5944 5944 5942 5941 5942 5940 5941 5941
5881 5882 5882 5888 5894 5897 5904 5906 5909 5913 5915 5918 5920 5922 5926 5928 5930 5930 5933 5934 5936 5938 5940 5940 5940 5941 5943 5943 5944 5944 5944 5944 5944 5945 5945 5944 5942 5942 5942 5941 5941 5941 5940
5873 5879 5881 5887 5892 5896 5899 5903 5907 5910 5912 5914 5916 5919 5922 5926 5928 5930 5932 5933 5935 5938 5940 5941 5941 5943 5943 5942 5942 5942 5942 5943 5944 5944 5943 5943 5943 5942 5941 5941 5939 5939 5938
5869 5872 5878 5879 5885 5888 5895 5900 5903 5906 5907 5909 5911 5914 5917 5922 5925 5926 5929 5933 5935 5935 5936 5937 5938 5939 5939 5939 5940 5940 5940 5941 5941 5941 5941 5941 5940 5939 5938 5938 5937 5935 5933
5860 5865 5869 5874 5881 5885 5890 5894 5896 5898 5902 5907 5909 5911 5914 5917 5921 5923 5925 5927 5929 5930 5931 5932 5931 5932 5934 5936 5936 5935 5935 5936 5937 5936 5935 5935 5936 5936 5935 5933 5931 5930 5929
5854 5861 5864 5869 5872 5878 5881 5887 5888 5891 5897 5901 5906 5909 5909 5913 5915 5917 5919 5921 5922 5924 5925 5926 5928 5929 5931 5931 5930 5930 5930 5931 5930 5931 5930 5930 5928 5929 5929 5927 5926 5926 5925
5850 5853 5859 5865 5867 5872 5878 5877 5880 5886 5896 5897 5899 5903 5902 5905 5908 5909 5913 5915 5917 5918 5920 5921 5923 5923 5924 5925 5924 5924 5924 5924 5925 5925 5924 5923 5923 5922 5920 5921 5920 5919 5919
5847 5848 5848 5852 5858 5864 5861 5851 5866 5881 5886 5886 5888 5890 5893 5899 5903 5905 5907 5909 5912 5913 5915 5916 5917 5918 5919 5918 5919 5918 5917 5919 5919 5918 5917 5915 5915 5914 5913 5912 5912 5912 5909
5843 5845 5846 5849 5850 5856 5857 5856 5865 5867 5871 5872 5843 5882 5887 5895 5897 5897 5899 5902 5905 5906 5908 5910 5911 5911 5913 5912 5912 5911 5910 5910 5911 5910 5908 5907 5905 5905 5904 5905 5903 5903 5901
5838 5840 5841 5842 5844 5845 5851 5851 5858 5862 5867 5867 5870 5874 5883 5888 5890 5890 5892 5893 5896 5898 5899 5901 5902 5903 5904 5904 5903 5902 5902 5901 5901 5900 5898 5898 5897 5896 5895 5894 5893 5891 5890
5833 5835 5838 5838 5842 5842 5845 5847 5851 5855 5860 5863 5866 5866 5869 5875 5879 5882 5884 5886 5888 5889 5889 5891 5892 5893 5894 5894 5893 5893 5893 5892 5892 5890 5889 5888 5887 5885 5884 5882 5880 5880 5879
5825 5829 5833 5835 5839 5842 5846 5847 5847 5849 5852 5857 5859 5860 5862 5864 5867 5870 5874 5878 5880 5880 5880 5880 5881 5883 5884 5885 5884 5883 5882 5882 5882 5880 5879 5878 5875 5873 5871 5871 5869 5869 5868
5816 5819 5825 5830 5833 5839 5840 5842 5842 5843 5846 5850 5852 5853 5853 5856 5858 5862 5865 5869 5871 5872 5872 5872 5873 5873 5873 5873 5874 5874 5874 5872 5871 5870 5869 5867 5866 5865 5862 5860 5859 5859 5859
5811 5815 5818 5820 5825 5832 5834 5835 5836 5837 5839 5844 5847 5848 5849 5852 5854 5857 5859 5861 5863 5864 5865 5866 5866 5865 5865 5865 5866 5866 5865 5865 5864 5862 5861 5860 5858 5857 5854 5852 5850 5848 5846
5807 5809 5815 5817 5818 5822 5827 5829 5832 5837 5837 5838 5841 5844 5848 5851 5852 5854 5855 5856 5857 5858 5859 5860 5860 5860 5859 5859 5858 5858 5858 5857 5855 5854 5852 5850 5849 5847 5846 5844 5842 5840 5838
5800 5804 5808 5812 5815 5816 5819 5823 5826 5830 5833 5835 5836 5839 5843 5844 5846 5848 5849 5850 5851 5851 5851 5852 5852 5853 5852 5851 5850 5850 5849 5848 5846 5844 5842 5840 5838 5836 5835 5833 5831 5830 5827
5786 5792 5798 5803 5809 5810 5814 5816 5820 5824 5827 5830 5832 5832 5835 5838 5839 5841 5841 5841 5842 5843 5843 5843 5843 5843 5843 5842 5840 5839 5838 5837 5836 5834 5832 5830 5828 5826 5824 5822 5821 5818 5816